Regional Weather Roundup
Issued by NWS

Home | Current Version | Previous Version | Graphics & Text | Print | Product List | Glossary On
Versions: 1 2 3 4 5 6 7 8 9 10 11 12 13 14 15 16 17 18 19 20 21 22 23 24 25 26 27 28 29 30 31 32 33 34 35 36 37 38 39 40 41 42 43 44 45 46 47 48 49 50
883
ASUS43 KMPX 252110
RWRMN
WEATHER ROUNDUP FOR MINNESOTA
NATIONAL WEATHER SERVICE TWIN CITIES/CHANHASSEN MN
400 PM CDT MON SEP 25 2017


NOTE: "FAIR" INDICATES FEW OR NO CLOUDS BELOW 12,000 FEET WITH NO
SIGNIFICANT WEATHER AND/OR OBSTRUCTIONS TO VISIBILITY. N/A MEANS
CURRENT SKY AND/OR WEATHER CONDITIONS ARE NOT AVAILABLE.

MNZ060>063-068>070-252200-
   Twin Cities Metro

CITY           SKY/WX    TMP DP  RH WIND       PRES   REMARKS
TWIN CITIES    CLOUDY    61  58  90 N12       29.96F
ST PAUL        CLOUDY    61  58  90 NW14      29.96F
CRYSTAL        CLOUDY    60  53  77 N10       29.96F
BLAINE         CLOUDY    61  57  88 N9        29.97F
LAKEVILLE      CLOUDY    61  61 100 NW7       29.95F
EDEN PRAIRIE   CLOUDY    61  57  87 N9        29.95F
SOUTH ST PAUL  CLOUDY    62  59  90 N9        29.95F
LAKE ELMO      CLOUDY    61  59  94 N9        29.97F
$$
MNZ001>005-007-008-013>017-022>024-027-028-252200-
   Northwest Minnesota

CITY           SKY/WX    TMP DP  RH WIND       PRES   REMARKS
BEMIDJI        CLOUDY    54  48  81 N7        30.06S
HALLOCK          N/A     54  48  82 N7        30.13S
ROSEAU         CLOUDY    55  48  76 N12       30.10F
THIEF RVR FALL CLOUDY    54  46  74 NE7       30.11S
CROOKSTON      CLOUDY    54  46  76 N7        30.11S
FOSSTON        CLOUDY    52  48  87 N9        30.08S
DETROIT LAKES  CLOUDY    54  48  82 N5        30.07S
MOORHEAD       CLOUDY    52  46  82 N10       30.10R
PARK RAPIDS    CLOUDY    57  48  72 N12       30.04F
MAHNOMEN       CLOUDY    53  47  78 N8        30.08S
$$
MNZ006-009>011-018-025>026-252200-
   North Central Minnesota

CITY           SKY/WX    TMP DP  RH WIND       PRES   REMARKS
BAUDETTE       CLOUDY    55  49  80 N12       30.08F
FLAG ISLAND    CLOUDY    54  46  76 N8        30.09S
INTL FALLS     CLOUDY    54  48  80 N7        30.07F
WASKISH        CLOUDY    55  48  76 NE7       30.07S
BIG FORK       RAIN      57  52  82 N9        30.05S
LONGVILLE      CLOUDY    57  52  82 NE5       30.03F
GRAND RAPIDS   CLOUDY    56  51  84 N5        30.05F
CRANE LAKE     CLOUDY    54  52  94 NW5       30.07F
ORR            CLOUDY    55  48  76 NW3       30.02F
WALKER         CLOUDY    55  48  77 N6        30.04F
$$
MNZ012-019>021-037-252200-
   Northeast Minnesota

CITY           SKY/WX    TMP DP  RH WIND       PRES   REMARKS
DULUTH         CLOUDY    56  55  97 N8        29.99F
ELY            LGT RAIN  55  54  94 CALM      30.03S
HIBBING        CLOUDY    55  52  89 N3        30.03F
EVELETH        CLOUDY    58  56  95 CALM      30.04S
GRAND MARAIS     N/A     62  59  90 SW5       29.97F
$$
MNZ029>031-032-039>041-046>048-054>057-064-252200-
   West Central Minnesota

CITY           SKY/WX    TMP DP  RH WIND       PRES   REMARKS
FERGUS FALLS   CLOUDY    55  48  76 N6        30.06R
WHEATON        CLOUDY    54  46  76 NW12      30.08S
ALEXANDRIA     CLOUDY    58  49  72 N7        30.03F
ELBOW LAKE     CLOUDY    55  49  83 NW8       30.05R
WADENA         CLOUDY    55  48  76 NE7       30.03F
GLENWOOD       CLOUDY    57  52  82 N9        30.02S
APPLETON       CLOUDY    59  48  67 N9        30.02R
BENSON         CLOUDY    59  50  72 N8        30.03S
ORTONVILLE     CLOUDY    54  48  82 N10       30.05R
MADISON        CLOUDY    59  52  77 N10       30.03R
WILLMAR        PTSUNNY   61  54  77 N8        30.01S
$$
MNZ033>034-036-042>043-049>051-058-059-252200-
   Central Minnesota

CITY           SKY/WX    TMP DP  RH WIND       PRES   REMARKS
ST CLOUD       CLOUDY    57  55  93 N9        29.99F
SAUK CENTRE    CLOUDY    57  50  77 NE8       30.01F
PAYNESVILLE    CLOUDY    58  53  82 N9        30.00F
AITKIN         CLOUDY    55  52  88 N7        30.01F
PINE RIVER     CLOUDY    55  48  76 N8        30.06F
BRAINERD       CLOUDY    57  51  80 NE5       30.03F
STAPLES        CLOUDY    55  48  76 N6        30.03S
LITTLE FALLS   CLOUDY    55  46  71 N5        30.01F
LITCHFIELD     CLOUDY    61  55  82 N9        29.99F
BUFFALO        CLOUDY    58  54  88 NW8       29.99F
MAPLE LAKE     CLOUDY    59  56  91 N8        30.00F
HUTCHINSON     CLOUDY    61  56  83 N6        29.99F
$$
MNZ037-044-045-052-053-252200-
   East Central Minnesota

CITY           SKY/WX    TMP DP  RH WIND       PRES   REMARKS
PRINCETON      LGT RAIN  57  55  94 N8        30.00S
MORA           CLOUDY    55  52  88 N7        30.01F
RUSH CITY      CLOUDY    58  54  84 N8        29.99F
MOOSE LAKE     CLOUDY    55  52  88 N6        29.99F
HINCKLEY       CLOUDY    59  54  82 N6        29.99F
CLOQUET        CLOUDY    55  52  88 N7        30.00F
MCGREGOR       CLOUDY    55  52  88 N8        30.02F
$$
MNZ071>073-080-081-089-090-097-098-252200-
   Southwest Minnesota

CITY           SKY/WX    TMP DP  RH WIND       PRES   REMARKS
MONTEVIDEO     CLOUDY    57  54  88 NE6       30.02S
GRANITE FALLS  CLOUDY    60  54  79 N10       30.02S
CANBY          CLOUDY    56  50  80 N7        30.03S
MARSHALL       CLOUDY    57  51  80 N10       30.00F
REDWOOD FALLS  CLOUDY    60  52  74 N9        29.98F
OLIVIA         CLOUDY    59  52  77 N9        29.98F
PIPESTONE      RAIN      55  52  88 NE7       29.98F
WORTHINGTON    CLOUDY    55  53  93 N8        29.97F
JACKSON        LGT RAIN  55  54  94 NE12      29.97F
TRACY          DRIZZLE   57  54  88 N10       29.99F
SLAYTON        DRIZZLE   55  45  71 N9        29.99F
$$
MNZ065>067-074>077-082>085-091>093-252200-
   South Central Minnesota

CITY           SKY/WX    TMP DP  RH WIND       PRES   REMARKS
MANKATO        CLOUDY    59  55  88 N12       29.97F
NEW ULM        CLOUDY    57  55  94 NE7       29.97F FOG
ST JAMES       CLOUDY    57  55  94 N5        29.99F
FAIRMONT       CLOUDY    58  55  90 N9        29.97F
FARIBAULT      CLOUDY    63  59  88 NW9       29.95F
OWATONNA       CLOUDY    64  61  88 NW10      29.94F
WASECA         CLOUDY    61  57  88 N9        29.97S
ALBERT LEA     CLOUDY    68  64  88 N9        29.94R
$$
MNZ078>079-086>088-094>096-252200-
   Southeast Minnesota

CITY           SKY/WX    TMP DP  RH WIND       PRES   REMARKS
ROCHESTER      MOSUNNY   75  66  73 N9        29.92S
RED WING       CLOUDY    70  61  73 N7        29.91F
STANTON        CLOUDY    65  60  83 NW10      29.93F
DODGE CENTER   CLOUDY    66  61  82 NW9       29.93S
WINONA         MOSUNNY   77  64  65 S3        29.90S
AUSTIN         MOSUNNY   72  64  78 N12       29.92R
PRESTON        SUNNY     79  63  58 SE5       29.91F
$$
ABBREVIATIONS USED IN REMARKS
   TC - TEMPERATURES IN CELSIUS
  WCI - WIND CHILL INDEX
   HX - HEAT INDEX
  VSB - VISIBILITY
$$




USA.gov is the U.S. government's official web portal to all federal, state and local government web resources and services.